Time,TemperatureF,DewpointF,PressureIn,WindDirection,WindDirectionDegrees,WindSpeedMPH,WindSpeedGustMPH,Humidity,HourlyPrecipIn,Conditions,Clouds,dailyrainin,SoftwareType,DateUTC
2013-07-03 00:00:00,81.0,70.0,-100.00,South,186,9.0,-999.0,70,0.00,,,-99.99,,2013-07-03 05:00:00,
2013-07-03 00:23:00,81.0,70.0,-100.00,South,186,9.0,-999.0,70,0.00,,,-99.99,,2013-07-03 05:23:00,
2013-07-03 00:37:00,81.0,70.0,-100.00,South,186,9.0,-999.0,70,0.00,,,-99.99,,2013-07-03 05:37:00,
2013-07-03 00:46:00,81.0,70.0,-100.00,South,186,9.0,-999.0,70,0.00,,,-99.99,,2013-07-03 05:46:00,
2013-07-03 01:00:00,81.0,69.0,-100.00,SSW,197,9.0,-999.0,68,0.00,,,-99.99,,2013-07-03 06:00:00,
2013-07-03 01:24:00,81.0,69.0,-100.00,SSW,197,9.0,-999.0,68,0.00,,,-99.99,,2013-07-03 06:24:00,
2013-07-03 01:38:00,81.0,69.0,-100.00,SSW,197,9.0,-999.0,68,0.00,,,-99.99,,2013-07-03 06:38:00,
2013-07-03 01:47:00,81.0,69.0,-100.00,SSW,197,9.0,-999.0,68,0.00,,,-99.99,,2013-07-03 06:47:00,
2013-07-03 01:58:00,81.0,69.0,-100.00,SSW,197,9.0,-999.0,68,0.00,,,-99.99,,2013-07-03 06:58:00,
2013-07-03 02:00:00,80.0,71.0,-100.00,South,178,7.0,-999.0,73,0.00,,,-99.99,,2013-07-03 07:00:00,
2013-07-03 02:25:00,80.0,71.0,-100.00,South,178,7.0,-999.0,73,0.00,,,-99.99,,2013-07-03 07:25:00,
2013-07-03 02:37:00,80.0,71.0,-100.00,South,178,7.0,-999.0,73,0.00,,,-99.99,,2013-07-03 07:37:00,
2013-07-03 02:47:00,80.0,71.0,-100.00,South,178,7.0,-999.0,73,0.00,,,-99.99,,2013-07-03 07:47:00,
2013-07-03 03:00:00,79.0,74.0,-100.00,SSW,202,8.0,-999.0,82,0.00,,,-99.99,,2013-07-03 08:00:00,
2013-07-03 03:25:00,79.0,74.0,-100.00,SSW,202,8.0,-999.0,82,0.00,,,-99.99,,2013-07-03 08:25:00,
2013-07-03 03:36:00,79.0,74.0,-100.00,SSW,202,8.0,-999.0,82,0.00,,,-99.99,,2013-07-03 08:36:00,
2013-07-03 03:45:00,79.0,74.0,-100.00,SSW,202,8.0,-999.0,82,0.00,,,-99.99,,2013-07-03 08:45:00,
2013-07-03 03:56:00,79.0,74.0,-100.00,SSW,202,8.0,-999.0,82,0.00,,,-99.99,,2013-07-03 08:56:00,
2013-07-03 04:00:00,80.0,73.0,-100.00,South,187,7.0,-999.0,79,0.00,,,-99.99,,2013-07-03 09:00:00,
2013-07-03 04:24:00,80.0,73.0,-100.00,South,187,7.0,-999.0,79,0.00,,,-99.99,,2013-07-03 09:24:00,
2013-07-03 04:46:00,80.0,73.0,-100.00,South,187,7.0,-999.0,79,0.00,,,-99.99,,2013-07-03 09:46:00,
2013-07-03 04:57:00,80.0,73.0,-100.00,South,187,7.0,-999.0,79,0.00,,,-99.99,,2013-07-03 09:57:00,
2013-07-03 05:00:00,80.0,73.0,-100.00,SSW,206,10.0,-999.0,78,0.00,,,-99.99,,2013-07-03 10:00:00,
2013-07-03 05:27:00,80.0,73.0,-100.00,SSW,206,10.0,-999.0,78,0.00,,,-99.99,,2013-07-03 10:27:00,
2013-07-03 05:36:00,80.0,73.0,-100.00,SSW,206,10.0,-999.0,78,0.00,,,-99.99,,2013-07-03 10:36:00,
2013-07-03 05:44:00,80.0,73.0,-100.00,SSW,206,10.0,-999.0,78,0.00,,,-99.99,,2013-07-03 10:44:00,
2013-07-03 05:56:00,80.0,73.0,-100.00,SSW,206,10.0,-999.0,78,0.00,,,-99.99,,2013-07-03 10:56:00,
2013-07-03 06:00:00,80.0,72.0,-100.00,SW,220,10.0,-999.0,75,0.00,,,-99.99,,2013-07-03 11:00:00,
2013-07-03 06:25:00,80.0,72.0,-100.00,SW,220,10.0,-999.0,75,0.00,,,-99.99,,2013-07-03 11:25:00,
2013-07-03 06:38:00,80.0,72.0,-100.00,SW,220,10.0,-999.0,75,0.00,,,-99.99,,2013-07-03 11:38:00,
2013-07-03 07:00:00,79.0,72.0,-100.00,SSW,195,4.0,-999.0,78,0.00,,,-99.99,,2013-07-03 12:00:00,
2013-07-03 07:24:00,79.0,72.0,-100.00,SSW,195,4.0,-999.0,78,0.00,,,-99.99,,2013-07-03 12:24:00,
2013-07-03 07:43:00,79.0,72.0,-100.00,SSW,195,4.0,-999.0,78,0.00,,,-99.99,,2013-07-03 12:43:00,
2013-07-03 07:58:00,79.0,72.0,-100.00,SSW,195,4.0,-999.0,78,0.00,,,-99.99,,2013-07-03 12:58:00,
2013-07-03 08:00:00,80.0,70.0,-100.00,WSW,254,11.0,-999.0,72,0.00,,,-99.99,,2013-07-03 13:00:00,
2013-07-03 08:35:00,80.0,70.0,-100.00,WSW,254,11.0,-999.0,72,0.00,,,-99.99,,2013-07-03 13:35:00,
2013-07-03 08:46:00,80.0,70.0,-100.00,WSW,254,11.0,-999.0,72,0.00,,,-99.99,,2013-07-03 13:46:00,
2013-07-03 08:55:00,80.0,70.0,-100.00,WSW,254,11.0,-999.0,72,0.00,,,-99.99,,2013-07-03 13:55:00,
2013-07-03 09:26:00,80.0,70.0,-100.00,West,265,8.0,-999.0,72,0.00,,,-99.99,,2013-07-03 14:26:00,
2013-07-03 09:36:00,80.0,70.0,-100.00,West,265,8.0,-999.0,72,0.00,,,-99.99,,2013-07-03 14:36:00,
2013-07-03 09:45:00,80.0,70.0,-100.00,West,265,8.0,-999.0,72,0.00,,,-99.99,,2013-07-03 14:45:00,
2013-07-03 09:55:00,80.0,70.0,-100.00,West,265,8.0,-999.0,72,0.00,,,-99.99,,2013-07-03 14:55:00,
2013-07-03 10:00:00,81.0,70.0,-100.00,SSW,205,3.0,-999.0,70,0.00,,,-99.99,,2013-07-03 15:00:00,
2013-07-03 10:26:00,81.0,70.0,-100.00,SSW,205,3.0,-999.0,70,0.00,,,-99.99,,2013-07-03 15:26:00,
2013-07-03 10:37:00,81.0,70.0,-100.00,SSW,205,3.0,-999.0,70,0.00,,,-99.99,,2013-07-03 15:37:00,
2013-07-03 10:57:00,81.0,70.0,-100.00,SSW,205,3.0,-999.0,70,0.00,,,-99.99,,2013-07-03 15:57:00,
2013-07-03 11:00:00,82.0,71.0,-100.00,South,176,2.0,-999.0,68,0.00,,,-99.99,,2013-07-03 16:00:00,
2013-07-03 11:23:00,82.0,71.0,-100.00,South,176,2.0,-999.0,68,0.00,,,-99.99,,2013-07-03 16:23:00,
2013-07-03 11:46:00,82.0,71.0,-100.00,South,176,2.0,-999.0,68,0.00,,,-99.99,,2013-07-03 16:46:00,
2013-07-03 11:59:00,82.0,71.0,-100.00,South,176,2.0,-999.0,68,0.00,,,-99.99,,2013-07-03 16:59:00,
2013-07-03 12:56:00,82.0,72.0,-100.00,SE,132,7.0,-999.0,71,0.00,,,-99.99,,2013-07-03 17:56:00,
2013-07-03 13:25:00,83.0,72.0,-100.00,SE,130,8.0,-999.0,67,0.00,,,-99.99,,2013-07-03 18:25:00,
2013-07-03 13:36:00,83.0,72.0,-100.00,SE,130,8.0,-999.0,67,0.00,,,-99.99,,2013-07-03 18:36:00,
2013-07-03 13:58:00,83.0,72.0,-100.00,SE,130,8.0,-999.0,67,0.00,,,-99.99,,2013-07-03 18:58:00,
2013-07-03 14:00:00,84.0,-99.9,-100.00,SE,133,14.0,-999.0,66,0.00,,,-99.99,,2013-07-03 19:00:00,
2013-07-03 14:30:00,84.0,-99.9,-100.00,SE,133,14.0,-999.0,66,0.00,,,-99.99,,2013-07-03 19:30:00,
2013-07-03 14:49:00,84.0,-99.9,-100.00,SE,133,14.0,-999.0,66,0.00,,,-99.99,,2013-07-03 19:49:00,
2013-07-03 15:00:00,83.0,73.0,-100.00,SE,136,19.0,-999.0,72,0.00,,,-99.99,,2013-07-03 20:00:00,
2013-07-03 15:43:00,83.0,73.0,-100.00,SE,136,19.0,-999.0,72,0.00,,,-99.99,,2013-07-03 20:43:00,
2013-07-03 15:55:00,83.0,73.0,-100.00,SE,136,19.0,-999.0,72,0.00,,,-99.99,,2013-07-03 20:55:00,
2013-07-03 16:00:00,83.0,71.0,-100.00,SE,140,17.0,-999.0,68,0.00,,,-99.99,,2013-07-03 21:00:00,
2013-07-03 16:25:00,83.0,71.0,-100.00,SE,140,17.0,-999.0,68,0.00,,,-99.99,,2013-07-03 21:25:00,
2013-07-03 16:35:00,83.0,71.0,-100.00,SE,140,17.0,-999.0,68,0.00,,,-99.99,,2013-07-03 21:35:00,
2013-07-03 16:44:00,83.0,71.0,-100.00,SE,140,17.0,-999.0,68,0.00,,,-99.99,,2013-07-03 21:44:00,
2013-07-03 16:55:00,83.0,71.0,-100.00,SE,140,17.0,-999.0,68,0.00,,,-99.99,,2013-07-03 21:55:00,
2013-07-03 17:00:00,83.0,70.0,-100.00,SE,143,16.0,-999.0,66,0.00,,,-99.99,,2013-07-03 22:00:00,
2013-07-03 17:25:00,83.0,70.0,-100.00,SE,143,16.0,-999.0,66,0.00,,,-99.99,,2013-07-03 22:25:00,
2013-07-03 17:37:00,83.0,70.0,-100.00,SE,143,16.0,-999.0,66,0.00,,,-99.99,,2013-07-03 22:37:00,
2013-07-03 17:45:00,83.0,70.0,-100.00,SE,143,16.0,-999.0,66,0.00,,,-99.99,,2013-07-03 22:45:00,
2013-07-03 17:56:00,83.0,70.0,-100.00,SE,143,16.0,-999.0,66,0.00,,,-99.99,,2013-07-03 22:56:00,
2013-07-03 18:00:00,82.0,71.0,-100.00,SE,141,17.0,-999.0,67,0.00,,,-99.99,,2013-07-03 23:00:00,
2013-07-03 18:24:00,82.0,71.0,-100.00,SE,141,17.0,-999.0,67,0.00,,,-99.99,,2013-07-03 23:24:00,
2013-07-03 18:43:00,82.0,71.0,-100.00,SE,141,17.0,-999.0,67,0.00,,,-99.99,,2013-07-03 23:43:00,
2013-07-03 18:56:00,82.0,71.0,-100.00,SE,141,17.0,-999.0,67,0.00,,,-99.99,,2013-07-03 23:56:00,
2013-07-03 19:00:00,82.0,72.0,-100.00,SE,135,17.0,-999.0,70,0.00,,,-99.99,,2013-07-04 00:00:00,
2013-07-03 19:24:00,82.0,72.0,-100.00,SE,135,17.0,-999.0,70,0.00,,,-99.99,,2013-07-04 00:24:00,
2013-07-03 19:46:00,82.0,72.0,-100.00,SE,135,17.0,-999.0,70,0.00,,,-99.99,,2013-07-04 00:46:00,
2013-07-03 19:57:00,82.0,72.0,-100.00,SE,135,17.0,-999.0,70,0.00,,,-99.99,,2013-07-04 00:57:00,
2013-07-03 20:00:00,83.0,69.0,-100.00,SE,135,14.0,-999.0,64,0.00,,,-99.99,,2013-07-04 01:00:00,
2013-07-03 20:23:00,83.0,69.0,-100.00,SE,135,14.0,-999.0,64,0.00,,,-99.99,,2013-07-04 01:23:00,
2013-07-03 20:43:00,83.0,69.0,-100.00,SE,135,14.0,-999.0,64,0.00,,,-99.99,,2013-07-04 01:43:00,
2013-07-03 20:55:00,83.0,69.0,-100.00,SE,135,14.0,-999.0,64,0.00,,,-99.99,,2013-07-04 01:55:00,
2013-07-03 21:00:00,82.0,71.0,-100.00,SE,138,15.0,-999.0,68,0.00,,,-99.99,,2013-07-04 02:00:00,
2013-07-03 21:23:00,82.0,71.0,-100.00,SE,138,15.0,-999.0,68,0.00,,,-99.99,,2013-07-04 02:23:00,
2013-07-03 21:38:00,82.0,71.0,-100.00,SE,138,15.0,-999.0,68,0.00,,,-99.99,,2013-07-04 02:38:00,
2013-07-03 21:46:00,82.0,71.0,-100.00,SE,138,15.0,-999.0,68,0.00,,,-99.99,,2013-07-04 02:46:00,
2013-07-03 21:56:00,82.0,71.0,-100.00,SE,138,15.0,-999.0,68,0.00,,,-99.99,,2013-07-04 02:56:00,
2013-07-03 22:00:00,82.0,73.0,-100.00,SE,126,16.0,-999.0,74,0.00,,,-99.99,,2013-07-04 03:00:00,
2013-07-03 22:26:00,82.0,73.0,-100.00,SE,126,16.0,-999.0,74,0.00,,,-99.99,,2013-07-04 03:26:00,
2013-07-03 22:35:00,82.0,73.0,-100.00,SE,126,16.0,-999.0,74,0.00,,,-99.99,,2013-07-04 03:35:00,
2013-07-03 22:45:00,82.0,73.0,-100.00,SE,126,16.0,-999.0,74,0.00,,,-99.99,,2013-07-04 03:45:00,
2013-07-03 22:57:00,82.0,73.0,-100.00,SE,126,16.0,-999.0,74,0.00,,,-99.99,,2013-07-04 03:57:00,
2013-07-03 23:00:00,81.0,74.0,-100.00,SE,129,16.0,-999.0,77,0.00,,,-99.99,,2013-07-04 04:00:00,
2013-07-03 23:22:00,81.0,74.0,-100.00,SE,129,16.0,-999.0,77,0.00,,,-99.99,,2013-07-04 04:22:00,
2013-07-03 23:33:00,81.0,74.0,-100.00,SE,129,16.0,-999.0,77,0.00,,,-99.99,,2013-07-04 04:33:00,
2013-07-03 23:43:00,81.0,74.0,-100.00,SE,129,16.0,-999.0,77,0.00,,,-99.99,,2013-07-04 04:43:00,
2013-07-03 23:52:00,81.0,74.0,-100.00,SE,129,16.0,-999.0,77,0.00,,,-99.99,,2013-07-04 04:52:00,